SCP
0 0 0 0 0 0 0 0 0 0 0 0 0 0 0 0 0 0 0 0 0 0 0 0 0 0 0 0 0 0 0 0 0 0 0 0 0 0 0 0 0 0 0 0
0 0 0 0 0 0 0 0 0 0 0 0 0 0 0 0 0 0 0 0 0 0 0 0 0 0 0 0 0 0 0 0 0 0 0 0 0 0 0 0 0 0 0 0
0 0 0 0 0 0 0 0 0 0 0 0 0 0 0 0 0 0 0 0 0 0 0 0 0 0 0 0 0 0 0 0 0 0 0 0 0 0 0 0 0 0 0 0
0 0 0 0 0 0 0 0 0 0 0 0 0 0 0 0 0 0 0 0 0 0 0 0 0 0 0 0 0 0 0 0 0 0 0 0 0 0 0 0 0 0 0 0
0 0 0 0 0 0 0 0 -0 -0 0 0 0 0 0 0 0 0 0 0 0 0 0 0 0 0 0 0 0 0 0 0 0 0 0 0 0 0 0 0 0 0 0 0
0 0 0 0 0 0 0 0 -0 -0 0 0 0 0 0 0 0 0 0 0 0 0 0 0 0 0 0 0 0 0 0 0 0 0 0 0 0 0 0 0 0 0 0 0
0 0 0 0 0 0 0 0 -0 -0 0 0 0 0 0 0 0 0 0 -0 -0 -0 0 0 0 0 0 0 0 0 0 0 0 0 0 0 0 0 0 0 0 0 0 0
0 0 0 0 0 0 0 0 0 0 0 0 0 0 0 0 0 0 0 0 -0 -0 0 0 0 0 0 0 0 0 0 0 0 0 0 0 0 0 0 0 0 0 0 0
0 0 0 0 0 0 0 0 0 0 0 0 0 0 0 0 0 0 0 0 0 0 0 0 0 0 0 0 0 0 0 0 0 0 0 0 0 0 0 0 0 0 0 0
0 0 0 0 0 0 0 0 0 0 0 0 0 0 0 0 0 0 0 0 0 0 0 0 0 0 0 0 0 0 0 0 0 0 0 0 0 0 0 0 0 0 0 0
0 0 0 0 0 0 0 0 0 0 0 0 0 0 0 0 0 0 0 0 0 0 0 0 0 0 0 0 0 0 0 0 0 0 0 0 0 0 0 -0 -0 0 0 0
0 0 0 0 0 0 0 0 0 0 0 0 0 0 0 0 0 0 0 0 0 0 0 0 0 0 0 0 0 0 0 0 -0 -0 0 0 0 0 0 0 -0 0 0 0
0 0 0 0 0 0 0 0 0 0 0 0 0 0 0 0 0 0 0 0 0 0 0 0 0 0 0 0 -0 0 0 0 -0 -0 0 0 0 0 0 0 0 0 0 0
0 0 0 0 0 0 0 0 0 0 0 0 0 0 0 0 0 0 0 0 0 0 0 0 0 0 0 0 -0 0 0 0 0 0 0 0 0 0 0 0 0 0 0 0
0 0 0 0 0 0 0 0 0 0 0 0 0 0 0 0 0 0 0 0 0 0 0 0 0 0 0 0 0 0 0 0 0 0 0 0 0 0 0 0 0 0 0 0
0 0 0 0 0 0 0 0 0 0 0 0 0 0 0 0 0 0 0 0 0 0 0 0 0 0 0 0 0 0 0 0 0 0 0 0 0 0 0 0 0 0 0 0
0 0 0 0 0 0 0 0 0 0 0 0 0 0 0 0 0 0 0 0 0 0 0 0 0 0 0 0 0 0 0 0 0 0 0 0 0 0 0 0 0 0 0 0
0 0 0 0 0 0 0 0 0 0 0 0 0 0 0 0 0 0 0 0 0 0 0 0 0 0 0 0 0 0 0 0 0 0 0 0 0 0 0 0 0 0 0 0
0 0 0 0 0 0 0 0 0 0 0 0 0 0 0 0 0 0 0 0 0 0 0 0 0 0 0 0 0 0 0 0 0 0 0 0 0 0 0 0 0 0 0 0
0 0 0 0 0 0 0 0 0 0 0 0 0 0 0 0 0 0 0 0 0 0 0 0 0 0 0 0 0 0 0 0 0 0 0 0 0 0 0 0 0 0 0 0
0 0 0 0 0 0 0 0 0 0 0 -0 0 0 0 0 0 0 0 0 0 0 0 0 0 0 0 0 0 0 0 0 0 0 0 0 0 0 0 0 0 0 0 0
0 0 0 0 0 0 0 0 0 0 0 0 0 0 0 0 0 0 0 0 0 0 0 0 0 0 0 0 0 0 0 0 0 0 0 0 0 0 0 0 0 0 0 0
0 0 0 0 0 0 0 0 0 0 0 0 0 0 0 0 0 0 0 0 0 0 0 0 0 0 0 0 0 0 0 0 0 0 0 0 0 0 0 0 0 0 0 0
0 0 0 0 0 0 0 0 0 0 0 0 0 0 0 0 0 0 0 0 0 0 0 0 0 0 0 0 0 0 0 0 0 0 0 0 0 0 0 0 0 0 0 0
0 0 0 0 0 0 0 0 0 0 0 0 0 0 0 0 0 0 0 0 0 0 0 0 0 0 0 0 0 0 0 0 0 0 0 0 0 0 0 0 0 0 0 0
0 0 0 0 0 0 0 0 0 0 0 0 0 0 0 0 0 0 0 0 0 0 0 0 0 0 0 0 0 0 0 0 0 0 0 0 0 0 0 0 0 0 0 0
Wind_Speed
2 3 3 3 3 2 2 1 2 2 2 4 5 7 7 4 4 4 4 4 4 4 3 3 3 4 3 3 2 2 2 1 1 1 1 1 1 0 1 1 1 1 2 2
2 4 3 3 2 2 1 1 2 2 1 3 5 8 6 4 5 4 4 4 4 4 3 3 3 3 3 3 2 2 2 1 1 1 1 1 1 1 1 0 1 1 1 2
4 3 3 2 3 3 2 1 2 4 5 4 5 6 3 2 3 2 2 3 3 3 3 3 3 3 2 2 2 2 2 2 1 1 1 1 1 0 0 0 1 1 1 1
4 3 3 2 3 3 1 2 2 3 3 2 2 4 3 2 2 2 3 3 2 2 2 3 3 3 3 3 2 2 2 1 2 2 2 2 1 1 1 0 0 1 1 2
2 3 3 3 3 3 1 3 4 4 3 3 2 3 4 1 1 2 2 2 1 1 1 2 3 3 2 2 2 2 2 1 1 2 3 3 2 1 1 0 0 1 1 1
1 1 2 2 2 2 3 4 4 2 1 2 2 2 4 1 2 0 0 1 0 0 0 1 2 2 2 2 2 2 2 2 1 1 2 3 3 2 1 1 1 1 1 1
1 2 1 2 3 1 2 2 2 2 1 3 0 2 5 1 1 1 1 1 1 1 1 1 1 1 1 2 2 3 3 2 2 2 2 2 3 3 2 2 1 1 1 1
1 1 1 2 2 2 2 2 1 1 2 3 2 4 4 1 2 2 2 2 2 2 1 1 0 0 1 1 2 2 2 2 2 2 2 2 2 2 2 2 1 2 1 1
1 1 0 1 1 2 2 1 1 0 1 3 4 3 3 1 1 1 1 1 1 1 1 0 0 0 0 1 2 2 2 2 2 2 2 2 2 2 2 1 1 1 1 1
2 1 1 0 1 1 1 1 1 0 1 3 5 3 3 2 1 0 1 0 0 1 1 0 0 0 0 1 1 2 2 2 2 2 2 2 2 2 1 1 1 1 1 1
1 0 1 1 1 1 1 0 1 1 1 2 4 5 1 0 0 1 0 0 0 0 1 1 0 1 1 1 1 1 1 1 1 2 2 2 2 2 2 2 2 1 1 1
1 0 2 2 1 2 1 1 1 1 2 2 3 7 1 1 1 1 1 1 1 1 1 1 1 0 1 1 1 1 1 1 1 2 2 2 2 2 2 2 2 2 2 2
1 1 1 2 1 0 2 2 2 1 0 2 3 8 1 1 3 1 1 1 1 1 1 1 1 1 1 1 1 1 1 1 1 1 1 1 2 2 2 2 1 1 2 2
0 1 3 4 2 1 3 4 3 3 3 4 8 9 7 5 5 4 2 2 2 2 2 2 2 1 1 1 1 1 1 1 1 1 2 1 1 2 2 1 1 1 2 1
1 2 3 5 5 4 6 6 6 8 8 8 8 8 12 7 5 4 3 2 2 2 2 2 2 2 1 2 2 2 2 2 2 2 2 1 1 1 1 1 1 1 1 2
1 1 2 5 4 4 7 10 9 10 9 11 11 14 10 6 4 4 3 3 4 4 4 3 3 2 2 2 2 1 1 1 1 1 1 1 1 1 1 1 1 1 1 2
2 2 1 4 3 5 9 10 10 7 8 8 11 11 4 4 5 4 4 4 5 5 4 4 3 3 3 2 2 2 2 1 1 1 1 1 1 1 2 1 1 2 2 2
4 3 2 3 4 6 8 2 6 7 8 10 10 8 6 6 4 5 4 4 5 4 3 3 3 3 2 2 2 1 1 1 1 1 2 2 2 2 2 2 2 3 2 2
2 3 2 1 4 10 7 4 5 6 8 9 11 10 8 4 4 5 4 4 4 3 3 3 2 2 2 2 1 1 1 1 2 2 3 2 2 3 3 3 3 3 3 3
1 1 2 3 3 8 7 3 2 2 8 7 9 9 5 2 3 5 2 2 2 2 1 2 1 1 1 1 1 2 2 2 3 3 3 2 2 3 4 4 3 3 3 4
4 4 5 6 7 12 6 5 5 4 8 3 6 6 5 6 7 3 1 1 1 1 2 1 1 1 2 1 2 2 3 4 3 2 2 2 2 3 3 3 3 3 3 3
10 9 8 6 7 14 7 8 10 10 2 2 3 5 6 7 5 3 2 2 2 2 2 1 1 2 1 1 2 3 4 3 1 1 2 2 2 2 2 3 3 3 3 3
10 11 9 12 13 5 10 10 8 3 3 4 4 5 5 5 5 4 4 4 3 3 2 1 2 2 1 1 2 4 4 2 1 1 2 3 2 3 3 3 3 3 3 3
7 4 5 8 13 9 9 9 7 6 6 5 4 4 4 6 6 5 5 4 3 3 3 2 2 3 3 2 2 4 3 1 1 2 3 2 2 3 3 2 3 3 3 4
8 8 6 10 10 7 9 11 11 9 7 7 6 6 6 6 7 6 5 5 4 4 3 2 3 4 4 3 3 3 2 1 2 2 3 3 3 3 3 3 3 4 4 5
10 11 12 12 9 8 8 5 7 9 10 9 8 7 6 6 7 6 6 5 4 4 3 3 4 4 4 3 3 2 2 2 2 3 3 2 2 2 2 2 3 6 6 8
Wind_Direction
35 52 45 16 354 338 354 340 298 307 339 310 269 272 262 218 218 241 246 227 214 209 190 163 157 141 141 147 154 163 147 136 133 123 136 159 169 126 75 48 17 23 15 359
71 45 5 345 351 333 16 12 312 316 359 309 290 278 259 222 216 219 234 240 224 206 183 168 156 149 161 165 164 161 158 166 180 141 147 204 166 170 160 81 0 18 21 0
74 27 349 15 23 5 11 8 338 318 313 259 289 284 217 207 205 201 234 250 236 214 199 177 172 173 172 178 184 181 174 175 165 151 127 109 90 108 55 8 354 343 346 358
54 18 8 25 12 349 327 20 332 304 317 294 289 295 270 186 186 221 241 251 258 233 214 192 188 180 189 190 172 176 181 168 165 172 161 167 185 209 231 217 275 342 25 25
57 14 5 15 353 345 302 305 278 278 288 290 264 263 274 149 251 248 241 243 241 247 235 205 191 184 182 168 163 168 166 188 187 179 174 167 178 188 180 160 265 318 354 19
108 48 19 350 318 284 284 284 263 252 253 277 248 253 279 239 282 292 113 136 120 265 207 181 150 141 155 153 163 169 173 192 208 191 170 168 176 183 181 202 258 285 298 7
71 111 79 320 315 339 340 347 3 358 334 260 269 258 260 319 26 64 73 64 82 98 81 80 111 144 158 165 173 175 174 195 196 191 180 175 180 187 197 206 226 263 286 331
360 352 63 13 9 335 317 349 56 306 288 301 290 246 258 94 74 67 59 55 49 57 65 58 81 149 180 173 171 173 177 190 187 193 185 177 182 189 206 211 218 235 242 251
11 299 68 356 318 329 334 23 354 326 301 286 262 256 276 116 111 78 82 56 20 359 18 13 31 247 184 178 175 179 173 187 200 193 172 180 183 191 207 204 211 231 238 253
359 284 293 188 238 253 315 326 326 72 331 297 287 264 260 276 294 304 79 58 319 14 19 287 312 284 224 180 170 166 170 190 194 174 177 187 190 192 195 184 227 222 232 246
330 140 291 236 217 209 181 229 266 264 242 255 291 281 327 275 258 286 282 161 82 9 316 257 208 183 180 154 155 166 175 174 180 182 177 181 183 182 184 199 228 234 230 241
1 41 269 225 93 9 310 275 197 187 266 245 267 274 306 37 22 37 313 313 345 4 354 359 351 165 180 185 175 175 182 189 196 177 169 180 178 186 203 213 223 228 240 253
4 124 327 315 305 299 256 241 228 158 200 232 234 263 266 348 331 321 298 290 315 322 312 308 302 259 193 186 187 198 205 210 189 147 147 184 199 205 221 228 228 233 256 263
110 186 203 227 257 266 253 241 217 191 207 237 235 259 282 293 305 310 302 293 303 296 279 281 284 275 214 203 207 215 224 200 170 158 174 196 207 207 221 234 231 245 251 252
188 226 247 266 279 277 258 250 221 213 218 226 247 260 274 283 287 288 286 281 285 283 273 264 265 269 245 217 218 218 221 199 173 164 181 194 203 193 191 217 236 247 246 258
217 229 291 282 259 266 270 254 232 231 232 242 261 272 266 276 280 277 269 263 263 265 263 259 251 245 247 234 222 219 218 186 152 170 215 228 216 208 213 237 248 261 264 268
178 164 243 280 309 315 274 235 206 210 214 212 233 247 269 281 277 272 267 260 257 257 255 250 244 237 241 234 207 213 213 174 157 207 240 240 226 234 236 240 255 260 266 272
161 170 203 288 343 266 247 180 186 214 238 225 241 258 264 264 276 274 256 249 253 254 253 254 247 248 235 219 210 198 183 177 202 231 244 244 237 242 244 241 248 260 266 266
179 173 190 220 271 275 275 215 186 206 262 226 230 249 258 273 305 280 253 230 232 240 246 250 242 234 216 212 202 177 206 213 230 242 244 240 230 234 239 245 250 256 262 264
225 193 192 193 232 251 251 167 140 133 275 234 212 233 240 186 264 262 234 221 236 238 244 247 247 216 224 226 174 190 231 231 242 246 246 245 229 224 234 244 250 252 252 261
172 192 206 210 233 260 247 155 139 184 250 221 199 217 207 208 224 232 213 253 234 231 245 238 223 218 225 203 178 218 234 242 251 259 258 255 235 234 239 246 248 250 256 267
178 178 194 185 215 251 188 153 192 220 243 219 221 218 217 230 243 241 236 241 246 256 254 239 235 244 233 178 190 231 247 255 261 253 257 252 243 242 241 243 254 251 249 262
203 195 189 197 217 236 174 202 221 221 243 243 232 236 227 236 242 243 244 240 239 238 238 230 236 264 274 224 207 238 262 274 269 264 264 257 251 247 239 234 242 247 243 249
229 208 218 247 255 248 233 241 247 241 240 248 242 241 230 236 243 242 243 242 242 242 237 228 221 246 262 250 236 242 266 265 229 254 267 265 252 256 249 243 238 238 239 245
207 178 212 249 263 281 257 232 236 240 244 248 248 238 233 235 246 243 243 242 239 239 234 217 226 241 253 254 248 251 248 201 235 252 257 259 252 249 253 250 244 247 239 233
192 187 193 228 218 208 240 224 215 226 236 235 237 246 239 224 237 241 241 241 239 239 230 226 232 241 252 254 257 257 233 205 218 250 256 250 250 247 245 256 277 267 260 266